Flag for U.S.A. Weather past 2 weeks in Citrus Heights, California, U.S.A.

Now
82 °F

Sunny.


Feels Like: 80 °F
Forecast: 51 / 85 °F
Wind: No wind

Location: Mather Field

Current Time: Apr 18, 2015 at 7:12:29 PM

Latest Report: Apr 18, 2015 at 5:46 PM


Visibility: 10 mi

Pressure: 29.87 "Hg

Humidity: 23%

Dew point: 41 °F

Location of Citrus HeightsLocation

Historic Weather in Citrus Heights — Graph

°F

Citrus Heights temperature yesterday

Maximum temperature yesterday: 82 °F (at 5:45 PM)
Minimum temperature yesterday: 45 °F (at 4:45 AM)
Average temperature yesterday: 64 °F

Past Weeks' High & Low Weather Summary

 TemperatureHumidityPressure
High84 °F (Apr 18, 3:45 PM)100% (Apr 6, 4:55 AM)30.34 "Hg (Apr 6, 4:55 AM)
Low36 °F (Apr 6, 4:55 AM)13% (Apr 16, 2:48 PM)29.80 "Hg (Apr 7, 5:48 AM)
Average58 °F55%30.02 "Hg
* Reported Apr 3 5:45 PM — Apr 18 5:46 PM, Citrus Heights, Weather by CustomWeather, © 2015

Note: Actual official high and low records may vary slightly from our data, if they occured in-between our weather recording intervals... More about our weather records

Advertising

Citrus Heights weather history for previous 24 hours

 ConditionsComfort  
Time TempWeatherWind HumidityBarometerVisibility
5:46 PM
Sat, Apr 18
82 °FSunny.No wind23%29.87 "Hg10 mi
3:45 PM84 °FSunny.6 mph22%29.91 "Hg10 mi
2:46 PM81 °FSunny.3 mph24%29.93 "Hg10 mi
1:46 PM79 °FSunny.5 mph26%29.95 "Hg10 mi
12:55 PM77 °FSunny.No wind28%29.97 "Hg10 mi
11:45 AM73 °FSunny.5 mph31%30.01 "Hg10 mi
10:45 AM68 °FSunny.No wind40%30.02 "Hg10 mi
9:58 AM64 °FSunny.3 mph46%30.03 "Hg10 mi
8:45 AM59 °FSunny.No wind55%30.04 "Hg10 mi
7:45 AM55 °FSunny.No wind67%30.03 "Hg10 mi
6:45 AM46 °FClear.No wind82%30.02 "Hg10 mi
5:45 AM52 °FClear.No wind67%30.01 "Hg10 mi
4:45 AM46 °FClear.6 mph82%30.00 "Hg10 mi
3:45 AM48 °FClear.8 mph76%29.99 "Hg10 mi
2:45 AM50 °FClear.6 mph76%30.00 "Hg10 mi
11:25 PM
Fri, Apr 17
54 °FClear.5 mph72%30.00 "Hg10 mi
9:55 PM63 °FClear.6 mph56%29.99 "Hg10 mi
8:50 PM66 °FClear.8 mph49%29.97 "Hg10 mi
7:55 PM64 °FSunny.7 mph46%29.96 "Hg10 mi
Weather by CustomWeather, © 2015

See weather overviewHow to use our weather pages